Washington Executive (W32)
Clinton, MD
Field Elevation: 249
Lat: 38°44.89N  Long: 76°55.97W
CTAF/Unicom Freq: 122.8000
   
    
Weather Advisories
8/20/2014 22:24 Z
Altimeter 30.02" Hg
Wind 132° @ 7 KT
Gusts 12 KT
Temperature 23° C (73° F)
Dewpoint 15° C (59° F)
Relative Humidity 62%
Density Altitude 1,185 feet
Condensation Altitude 4,047 feet
  Wind and Runways
Indicated Runway = 5
History
 
 
More Info
All DigiWx sites map
Weather Radar
NOAA Forecast
 
Airport IQ 5010
(HMIEM) Shock Trauma Ctr
(26N) Ocean City
 
about DigiWx
 
FAA Disclaimer: The data displayed is for advisory purposes only and is not to be used for flight planning or operations. For official data, please call (not available) to hear the current automated AWOS voice message.
  METAR W32 202224Z AUTO 13007G12KT 23/15 A3002